Regional Weather Roundup
Issued by NWS Columbia, SC

Home | Current Version | Previous Version | Text Only | Print | Product List | Glossary On
Versions: 1 2 3 4 5 6 7 8 9 10 11 12 13 14 15 16 17 18 19 20 21 22 23 24 25 26 27 28 29 30 31 32 33 34 35 36 37 38 39 40 41 42 43 44 45 46 47 48 49 50
000
ASUS42 KCAE 210110
RWRCAE
REGIONAL WEATHER ROUNDUP
NATIONAL WEATHER SERVICE COLUMBIA SC
900 PM EDT WED SEP 20 2017

NOTE: "FAIR" INDICATES FEW OR NO CLOUDS BELOW 12,000 FEET WITH NO
SIGNIFICANT WEATHER AND/OR OBSTRUCTIONS TO VISIBILITY.

NOT ALL STATIONS ARE QUALITY CONTROLLED BY THE NATIONAL
WEATHER SERVICE. USE DATA WITH CAUTION...ESPECIALLY
DEWPOINT OBSERVATIONS.

SCZ001>056-GAZ040-063>065-077-210200-
...UPSTATE SOUTH CAROLINA...

CITY           SKY/WX    TMP DP  RH WIND       PRES   REMARKS
ANDERSON       CLEAR     76  65  68 N5        30.02R
LIBERTY        CLEAR     68  65  91 CALM      30.02R
SPARTANBURG    CLEAR     73  68  83 CALM      30.01R
CLEMSON        CLEAR     73  63  70 N3        30.03R
GREENVILLE     CLEAR     81  68  64 NW3       30.03R
GREENWOOD      CLEAR     74  71  91 CALM      30.02R
GREER          CLEAR     76  69  79 CALM      30.02R
ROCK HILL        N/A    N/A N/A N/A MISG      30.01R
CHESTER        CLEAR     73  66  78 CALM      30.01R
LAURENS        CLEAR     73  70  88 CALM      30.01R


...CENTRAL SOUTH CAROLINA...

CITY           SKY/WX    TMP DP  RH WIND       PRES   REMARKS
COLUMBIA APT   CLEAR     80  68  66 CALM      29.98R
COLUMBIA OWENS CLEAR     79  67  66 CALM      29.99R
MCENTIRE ANGB  CLEAR     73  70  89 CALM      29.99R
ORANGEBURG     CLEAR     78  70  76 CALM      29.99R
SUMTER SHAW    CLEAR     76  71  82 CALM      29.97R
NEWBERRY       CLEAR     75  70  83 SE3       30.03R
AIKEN          FAIR      73  68  83 CALM      30.03S
BARNWELL       FAIR      79  75  89 CALM      29.98S
MANNING        FAIR      73  72  94 CALM      29.99R
CAMDEN         FAIR      77  72  83 CALM      30.00R
LANCASTER      CLEAR     75  73  94 CALM      30.00R
WINNSBORO      CLEAR     75  68  78 SE3       30.00R


...EASTERN AND COASTAL SOUTH CAROLINA...

CITY           SKY/WX    TMP DP  RH WIND       PRES   REMARKS
MYRTLE BEACH   CLEAR     79  74  84 S8        30.00R
N MYRTLE BCH   CLEAR     80  75  84 SW9       29.99R
CONWAY         FAIR      75  72  88 CALM      29.99S
MARION         FAIR      73  70  88 CALM      29.99R FOG
HARTSVILLE     FAIR      70  68  94 CALM      29.99R
FLORENCE       CLEAR     74  70  87 S3        29.99R
DARLINGTON     CLEAR     72  71  97 SW6       29.99R
CHARLESTON APT CLEAR     77  72  84 S8        30.00R
MOUNT PLEASANT FAIR      75  73  94 CALM      30.00R
WALTERBORO     CLEAR     77  73  88 CALM      30.00R
BEAUFORT       CLEAR     80  75  84 S5        29.99R


...EASTERN GEORGIA...

CITY           SKY/WX    TMP DP  RH WIND       PRES   REMARKS
AUGUSTA BUSH F CLEAR     76  73  91 CALM      29.98R
AUGUSTA DANIEL CLEAR     84  68  58 CALM      30.00R
THOMSON        CLEAR     74  72  91 CALM      30.04S
WASHINGTON     FAIR     N/A N/A N/A CALM      30.01R
CLAXTON        FAIR      80  74  83 CALM      30.00R
SYLVANIA       CLEAR     78  76  94 CALM      30.00R
STATESBORO     CLEAR     79  71  74 SE5       29.99R
SAVANNAH       PTCLDY    75  69  81 S5        30.00R


...SOUTHERN NORTH CAROLINA...

CITY           SKY/WX    TMP DP  RH WIND       PRES   REMARKS
CHARLOTTE      PTCLDY    74  69  85 SW3       30.01R
MONROE         CLEAR     73  71  93 CALM      30.00R
WADESBORO      PTCLDY    76  67  71 SE3       29.99R
RUTHERFORDTON  CLEAR     76  70  83 N3        30.03R
ASHEVILLE      CLEAR     69  63  81 CALM      30.10R

$$



USA.gov is the U.S. government's official web portal to all federal, state and local government web resources and services.